| Temperature (°F) | Max | Average | Min |
|---|---|---|---|
| Max Temperature | 95 | 91.16 | 88 |
| Avg Temperature | 83.25 | 81.56 | 78.9 |
| Min Temperature | 79 | 74.35 | 70 |
| Dew Point (°F) | Max | Average | Min |
|---|---|---|---|
| Dew Point | 77 | 69.33 | 55 |
| Precipitation (in) | Max | Average | Min | Sum |
|---|---|---|---|---|
| Precipitation | 0.00 | 0.00 | 0.00 | 0.00 |
| Snowdepth | 0.00 | 0.00 | 0.00 | 0.00 |
| Wind (mph) | Max | Average | Min |
|---|---|---|---|
| Wind | 16 | 4.73 | 0 |
| Gust Wind | 23 | 0.02 | 0 |
| Sea Level Pressure (in) | Max | Average | Min |
|---|---|---|---|
| Sea Level Pressure | 29.97 | 29.83 | 29.67 |
| Date | Temperature (°F) | Dew Point (°F) | Humidity (%) | Wind Speed (mph) | Pressure (in) | Precipitation (in) | ||||||||||
|---|---|---|---|---|---|---|---|---|---|---|---|---|---|---|---|---|
| Max | Avg | Min | Max | Avg | Min | Max | Avg | Min | Max | Avg | Min | Max | Avg | Min | ||
| 1/31/2022 | 93 | 83.3 | 77 | 72 | 68.4 | 61 | 83 | 63.2 | 34 | 14 | 8.6 | 2 | 29.9 | 29.8 | 29.7 | 0.00 |
| 1/30/2022 | 90 | 82.1 | 79 | 75 | 72.6 | 70 | 89 | 73.8 | 52 | 16 | 7.7 | 3 | 29.9 | 29.8 | 29.7 | 0.00 |
| 1/29/2022 | 91 | 82.3 | 77 | 75 | 73.4 | 66 | 94 | 76.7 | 43 | 9 | 5.8 | 1 | 29.9 | 29.8 | 29.7 | 0.00 |
| 1/28/2022 | 91 | 82.2 | 75 | 77 | 71.0 | 64 | 100 | 72.1 | 41 | 8 | 4.4 | 1 | 29.9 | 29.8 | 29.7 | 0.00 |
| 1/27/2022 | 95 | 81.9 | 73 | 77 | 70.5 | 57 | 100 | 73.0 | 28 | 13 | 4.7 | 1 | 29.9 | 29.8 | 29.7 | 0.00 |
| 1/26/2022 | 93 | 81.5 | 75 | 77 | 72.3 | 66 | 94 | 76.1 | 44 | 15 | 5.2 | 1 | 29.9 | 29.8 | 29.7 | 0.00 |
| 1/25/2022 | 88 | 81.8 | 77 | 73 | 72.6 | 72 | 89 | 74.5 | 58 | 12 | 6.3 | 1 | 29.9 | 29.8 | 29.7 | 0.00 |
| 1/24/2022 | 93 | 82.7 | 77 | 75 | 72.0 | 68 | 94 | 72.7 | 44 | 12 | 4.5 | 1 | 29.9 | 29.8 | 29.7 | 0.00 |
| 1/23/2022 | 91 | 82.0 | 77 | 73 | 71.0 | 66 | 89 | 70.7 | 46 | 10 | 6.0 | 2 | 29.9 | 29.8 | 29.7 | 0.00 |
| 1/22/2022 | 93 | 81.3 | 73 | 73 | 68.7 | 63 | 89 | 67.7 | 38 | 14 | 6.3 | 2 | 29.9 | 29.8 | 29.7 | 0.00 |
| 1/21/2022 | 93 | 81.3 | 72 | 72 | 67.6 | 64 | 94 | 65.4 | 38 | 14 | 4.6 | 1 | 29.9 | 29.8 | 29.7 | 0.00 |
| 1/20/2022 | 90 | 80.6 | 73 | 73 | 68.2 | 63 | 94 | 68.3 | 40 | 13 | 4.3 | 1 | 29.9 | 29.8 | 29.7 | 0.00 |
| 1/19/2022 | 90 | 80.9 | 73 | 73 | 68.1 | 64 | 100 | 67.3 | 43 | 12 | 4.7 | 1 | 29.9 | 29.8 | 29.7 | 0.00 |
| 1/18/2022 | 91 | 81.4 | 73 | 72 | 68.7 | 61 | 94 | 67.2 | 36 | 12 | 3.8 | 0 | 29.9 | 29.8 | 29.8 | 0.00 |
| 1/17/2022 | 90 | 81.9 | 75 | 72 | 67.5 | 64 | 83 | 62.8 | 46 | 8 | 3.6 | 1 | 29.9 | 29.9 | 29.8 | 0.00 |
| 1/16/2022 | 93 | 81.9 | 72 | 70 | 65.2 | 57 | 94 | 60.2 | 30 | 12 | 5.7 | 1 | 29.9 | 29.9 | 29.8 | 0.00 |
| 1/15/2022 | 93 | 78.9 | 70 | 72 | 66.4 | 57 | 100 | 68.8 | 31 | 9 | 3.7 | 0 | 29.9 | 29.9 | 29.8 | 0.00 |
| 1/14/2022 | 91 | 80.6 | 72 | 70 | 64.1 | 55 | 83 | 60.2 | 33 | 10 | 4.1 | 1 | 30.0 | 29.9 | 29.8 | 0.00 |
| 1/13/2022 | 88 | 78.9 | 70 | 72 | 66.8 | 63 | 100 | 68.6 | 43 | 9 | 4.0 | 0 | 30.0 | 29.9 | 29.8 | 0.00 |
| 1/12/2022 | 90 | 80.2 | 70 | 68 | 64.7 | 59 | 88 | 61.7 | 36 | 9 | 4.7 | 1 | 29.9 | 29.9 | 29.8 | 0.00 |
| 1/11/2022 | 93 | 82.3 | 75 | 72 | 68.2 | 57 | 89 | 64.4 | 31 | 12 | 5.0 | 0 | 29.9 | 29.9 | 29.8 | 0.00 |
| 1/10/2022 | 91 | 82.4 | 77 | 75 | 71.3 | 68 | 94 | 70.4 | 46 | 10 | 4.2 | 0 | 29.9 | 29.8 | 29.8 | 0.00 |
| 1/9/2022 | 91 | 81.4 | 73 | 75 | 70.0 | 64 | 94 | 70.1 | 41 | 12 | 4.2 | 0 | 29.9 | 29.8 | 29.7 | 0.00 |
| 1/8/2022 | 93 | 82.2 | 75 | 73 | 70.0 | 66 | 89 | 67.7 | 44 | 8 | 4.3 | 0 | 29.9 | 29.9 | 29.8 | 0.00 |
| 1/7/2022 | 91 | 83.1 | 79 | 75 | 71.8 | 66 | 89 | 70.0 | 49 | 12 | 3.6 | 0 | 29.9 | 29.9 | 29.8 | 0.00 |
| 1/6/2022 | 88 | 81.6 | 75 | 75 | 72.7 | 70 | 94 | 75.6 | 58 | 6 | 2.7 | 0 | 29.9 | 29.8 | 29.8 | 0.00 |
| 1/5/2022 | 90 | 81.9 | 75 | 73 | 71.6 | 70 | 89 | 71.6 | 52 | 7 | 3.7 | 1 | 29.9 | 29.8 | 29.8 | 0.00 |
| 1/4/2022 | 90 | 81.0 | 75 | 73 | 72.0 | 70 | 94 | 74.9 | 52 | 9 | 3.8 | 0 | 29.9 | 29.8 | 29.8 | 0.00 |
| 1/3/2022 | 90 | 81.5 | 75 | 75 | 69.0 | 63 | 89 | 68.0 | 40 | 8 | 3.8 | 1 | 29.9 | 29.8 | 29.8 | 0.00 |
| 1/2/2022 | 91 | 81.9 | 73 | 75 | 68.1 | 59 | 88 | 64.8 | 34 | 9 | 3.8 | 1 | 29.9 | 29.9 | 29.8 | 0.00 |
| 1/1/2022 | 91 | 81.5 | 73 | 72 | 64.9 | 61 | 74 | 58.0 | 38 | 9 | 5.0 | 2 | 29.9 | 29.9 | 29.8 | 0.00 |